Location: Ciechanow
(52.8812°N, 20.6195°E)
Time: 00:37:36
(UTC+01:00)

ISS - Pass Details

Date: 31 January 2019
Orbit: 403 x 411 km, 51.6° (Epoch: 22 February)

Event Time Altitude Azimuth Distance (km) Brightness Sun altitude
Rises 19:46:45 0° 279° (W) 2,342 1.2 -31.1°
Reaches altitude 10° 19:48:53 10° 273° (W) 1,480 -0.1 -31.4°
Enters shadow 19:49:03 11° 272° (W) 1,413 -0.3 -31.4°
